Location: Halfmoon Beach
(42.8031°N, 73.7540°W)
Time: 02:59:38
(UTC+00:00)

Daily predictions for brighter satellites

Satellite Brightness Start Highest point End
(mag) Time Altitude Azimuth Time Altitude Azimuth Time Altitude Azimuth
Meteor 2-9 Rocket 4.3 00:00:33 10° NNW 00:06:27 81° W 00:06:52 76° SSW
S3M 3.9 00:02:36 10° N 00:08:52 83° W 00:15:00 10° S
CZ-3B R/B 4.4 00:07:16 10° S 00:10:11 15° SSE 00:10:11 15° SSE
SL-16 R/B 3.6 00:25:42 10° WSW 00:30:45 32° NW 00:31:43 31° NW
Cosmos 2369 Rocket 4.1 00:25:41 10° NNW 00:27:11 19° NNW 00:27:11 19° NNW
USA 234 4.2 08:25:52 10° NE 08:30:22 42° E 08:30:22 42° E
CZ-4C R/B 2.9 09:03:53 78° NNE 09:04:08 79° NE 09:12:25 10° SE
FALCON 9 R/B 3.6 09:08:52 42° S 09:10:21 47° SSE 09:27:42 10° E
Nadezhda 4 Rocket 4.2 09:20:16 36° N 09:22:51 67° E 09:28:58 10° SSE
SL-16 R/B 3.9 09:27:34 22° S 09:27:34 22° S 09:29:31 10° S
ATLAS 5 CENTAUR R/B 4.3 09:29:10 11° NNE 09:29:10 11° NNE 09:29:24 10° NNE
Cosmos 1603 4.4 09:28:53 38° NNE 09:30:38 50° ENE 09:36:10 10° SE
ALOS 4.1 09:37:17 10° NNE 09:41:26 31° E 09:45:34 10° SSE
Meteor 2-11 Rocket 4.3 09:40:27 10° SSW 09:46:31 71° W 09:52:38 10° N
SKYMED 2 4.2 09:46:35 10° SSE 09:50:48 53° ENE 09:52:27 33° NNE
Cosmos 1452 Rocket 4.3 09:46:58 10° S 09:52:03 51° ESE 09:57:10 10° NNE
NOSS 2-1 (D) 4.5 09:52:07 47° NNW 09:54:02 85° NE 10:01:52 10° SE
Cosmos 1140 Rocket 3.3 09:54:52 72° W 09:54:57 72° WSW 10:00:09 10° S
Meteor 1-27 Rocket 4.3 09:56:53 42° SW 09:56:53 42° SW 10:01:11 10° SSW
Cosmos 407 Rocket 4.2 09:58:36 38° SW 09:58:36 38° SW 10:02:18 10° S
STARLINK 1056 4.4 09:58:24 37° ENE 09:58:24 37° ENE 10:01:08 10° ESE
Cosmos 1461 3.0 09:59:32 70° S 09:59:32 70° S 10:03:31 10° SSE
Cosmos 1484 Rocket 3.8 09:55:23 10° NNE 10:00:49 36° S 10:03:12 10° S
STARLINK 1054 4.3 10:01:22 40° NE 10:01:22 40° NE 10:04:16 10° ESE
Meteor 1-20 Rocket 4.5 09:55:14 10° S 10:01:02 73° E 10:06:52 10° NNE
Cosmos 1634 Rocket 4.3 09:56:25 10° S 10:02:33 67° E 10:08:41 10° NNE
STARLINK 1062 4.1 10:04:12 44° NE 10:04:12 44° NE 10:07:14 10° ESE
Okean 1-7 3.3 10:01:38 27° N 10:03:57 68° E 10:08:18 10° SSE
Cosmos 2034 Rocket 4.1 09:59:27 10° SSW 10:05:34 52° WNW 10:11:48 10° N
Cosmos 1023 Rocket 4.5 10:05:37 56° W 10:05:45 56° WSW 10:10:52 10° S
STARLINK 1053 3.9 10:07:23 47° NE 10:07:23 47° NE 10:10:35 10° ESE
Cosmos 2263 Rocket 2.2 10:01:51 10° SSW 10:07:26 83° ESE 10:13:01 10° NNE
PSLV R/B 3.8 10:05:04 10° NNE 10:09:12 86° W 10:13:19 10° SSW
STARLINK 1061 3.8 10:10:05 50° NE 10:10:05 50° NE 10:13:26 10° ESE
STARLINK 1067 3.6 10:13:05 53° NNE 10:13:07 53° NNE 10:16:34 10° ESE
MOS 1-B 4.4 10:09:06 10° NNE 10:14:55 83° ESE 10:20:41 10° SSW
USA 234 3.4 10:08:57 10° NE 10:15:14 51° NNW 10:17:44 35° W
STARLINK 1058 3.5 10:15:59 55° NNE 10:16:10 56° NNE 10:19:37 10° ESE
Cosmos 2084 Rocket 3.9 10:18:16 43° SW 10:18:16 43° SW 10:22:21 10° SSE
STARLINK 1043 3.4 10:18:57 56° N 10:19:15 59° NNE 10:22:43 10° ESE
SWAS 4.5 10:16:30 10° SSW 10:20:48 82° ESE 10:25:09 10° NNE
Meteor 1-18 Rocket 4.2 10:16:03 10° N 10:21:38 79° ENE 10:27:12 10° SSE
Cosmos 2195 Rocket 4.4 10:15:38 10° N 10:22:00 82° W 10:28:19 10° S
STARLINK 1065 3.3 10:21:51 56° N 10:22:16 63° NNE 10:25:46 10° ESE
Cosmos 2227 4.3 10:19:52 11° SW 10:25:12 55° WNW 10:30:53 10° NNE
STARLINK 1063 3.3 10:24:56 55° NNW 10:25:28 67° NNE 10:28:58 10° ESE
STARLINK 1064 3.3 10:27:47 53° NNW 10:28:28 71° NE 10:31:58 10° ESE
Cosmos 1092 Rocket 3.9 10:24:08 10° NNW 10:30:10 58° W 10:36:09 10° S
GEOS 3 Rocket 3.8 10:26:00 10° SSE 10:30:56 51° WSW 10:33:08 31° WNW
STARLINK 1041 3.2 10:30:46 50° NW 10:31:33 75° NE 10:35:04 10° ESE
FENGYUN 3A 3.6 10:26:53 10° NNE 10:32:19 89° WNW 10:37:41 10° SSW
STARLINK 1038 3.1 10:33:45 47° NW 10:34:41 79° NE 10:38:12 10° ESE
Cosmos 1346 Rocket 2.9 10:31:05 10° S 10:34:55 72° E 10:38:48 10° NNE
USA 116 4.0 10:31:40 10° S 10:36:01 82° WSW 10:40:58 10° NNW
STARLINK 1046 3.1 10:36:44 43° NW 10:37:47 84° NE 10:41:19 10° SE
COSMO-SKYMED 1 2.8 10:34:38 10° S 10:38:47 45° W 10:40:58 25° NW
CZ-4B R/B 3.4 10:33:36 10° NNE 10:39:14 78° ESE 10:44:54 10° S
FALCON 9 DEB 3.3 10:40:47 33° S 10:40:47 33° S 10:42:31 10° SSE
STARLINK 1039 3.1 10:39:44 40° NW 10:40:53 89° NNE 10:44:25 10° SE
Cosmos 2221 Rocket 3.8 10:36:45 10° N 10:41:10 72° E 10:45:34 10° SSE
STARLINK 1045 3.1 10:41:06 39° NW 10:42:20 89° SSW 10:45:52 10° SE
FALCON 9 DEB 3.3 10:47:19 30° SSW 10:47:19 30° SSW 10:49:14 10° SSE
STARLINK 1027 2.8 10:47:53 42° W 10:48:36 59° SW 10:51:29 10° SE
STARLINK 1028 2.8 10:48:07 42° W 10:48:50 59° SW 10:51:43 10° SE
STARLINK 1021 2.8 10:48:20 41° W 10:49:03 58° SW 10:51:55 10° SE
STARLINK 1019 2.8 10:48:30 40° W 10:49:16 58° SW 10:52:11 10° SE
PSLV R/B 2.9 10:48:55 42° SW 10:49:21 50° S 10:51:43 10° ESE
STARLINK 1012 2.8 10:48:46 41° W 10:49:30 58° SW 10:52:22 10° SE
STARLINK 1010 2.8 10:48:58 40° W 10:49:43 57° SW 10:52:35 10° SE
STARLINK 1026 2.8 10:49:12 40° W 10:49:57 57° SW 10:52:50 10° SE
STARLINK 1013 2.8 10:49:25 40° W 10:50:10 57° SW 10:53:02 10° SE
STARLINK 1009 2.9 10:49:38 39° W 10:50:24 56° SW 10:53:17 10° SE
STARLINK 1015 2.9 10:49:49 39° W 10:50:37 56° SW 10:53:29 10° SE
STARLINK 1016 2.9 10:50:03 39° W 10:50:51 56° SW 10:53:43 10° SE
STARLINK 1008 2.9 10:50:16 38° W 10:51:04 55° SW 10:53:56 10° SE
STARLINK 1014 2.9 10:50:28 38° W 10:51:16 55° SW 10:54:08 10° SE
STARLINK 1025 2.9 10:50:41 38° W 10:51:30 55° SW 10:54:21 10° SE
STARLINK 1034 2.9 10:50:53 37° W 10:51:43 55° SW 10:54:36 10° SE
STARLINK 1017 2.9 10:50:55 37° W 10:51:45 54° SW 10:54:36 10° SE
STARLINK 1023 2.9 10:51:09 37° W 10:51:59 54° SW 10:54:50 10° SE
STARLINK 1007 2.9 10:51:20 37° W 10:52:10 54° SW 10:55:01 10° SE
METEOR-M 4.1 10:46:59 10° N 10:52:14 58° WNW 10:57:27 10° SSW
CZ-4C R/B 4.0 10:49:07 20° WNW 10:52:21 27° WSW 10:58:54 10° SSW
STARLINK 1052 2.9 10:51:33 36° W 10:52:23 54° SW 10:55:16 10° SE
Cosmos 1703 Rocket 4.4 10:50:47 23° NW 10:52:25 29° W 10:56:13 10° SSW
STARLINK 1048 2.9 10:51:34 36° W 10:52:25 53° SW 10:55:16 10° SE
STARLINK 1049 2.9 10:51:48 36° W 10:52:39 53° SW 10:55:32 10° SE
SJ-12 4.4 10:49:01 10° N 10:52:49 36° WNW 10:56:35 10° SW
STARLINK 1051 2.9 10:51:59 36° W 10:52:50 53° SW 10:55:42 10° SE
Cosmos 1943 3.4 10:48:48 17° NW 10:52:54 49° WSW 10:58:16 10° S
Okean O Rocket 1.5 10:48:40 10° N 10:53:03 69° WNW 10:57:26 10° SSW
STARLINK 1037 3.0 10:52:13 36° W 10:53:06 52° SW 10:55:57 10° SE
STARLINK 1059 3.0 10:52:25 35° W 10:53:18 52° SW 10:56:08 10° SE
STARLINK 1057 3.0 10:52:38 35° W 10:53:31 52° SW 10:56:22 10° SE
Cosmos 1110 Rocket 4.5 10:48:33 10° S 10:53:40 63° ESE 10:58:47 10° NNE
STARLINK 1068 3.0 10:53:06 34° W 10:54:00 51° SW 10:56:52 10° SE
STARLINK 1029 3.0 10:53:18 34° W 10:54:13 51° SW 10:57:03 10° SE
STARLINK 1060 3.0 10:53:30 34° W 10:54:24 50° SW 10:57:15 10° SE
STARLINK 1030 3.0 10:53:41 33° W 10:54:39 51° SW 10:57:31 10° SE
STARLINK 1040 3.1 10:53:52 33° W 10:54:46 46° SW 10:57:35 10° SE
STARLINK 1020 3.0 10:53:56 33° W 10:54:52 50° SW 10:57:42 10° SE
STARLINK 1033 3.0 10:54:35 33° W 10:55:32 49° SW 10:58:22 10° SE
STARLINK 1031 3.1 10:54:50 32° W 10:55:47 49° SW 10:58:38 10° SE
ATLAS CENTAUR R/B 3.9 10:53:52 10° N 10:55:56 13° NE 10:57:57 10° ENE
STARLINK 1024 3.1 10:55:00 32° W 10:56:00 49° SW 10:58:51 10° SE
STARLINK 1035 3.1 10:55:15 32° W 10:56:14 48° SW 10:59:04 10° SE
Okean 3 3.5 10:52:02 10° N 10:56:14 80° E 11:00:26 10° S
STARLINK 1032 3.1 10:55:27 32° W 10:56:27 48° SW 10:59:16 10° SE
STARLINK 1011 3.1 10:55:36 31° W 10:56:38 48° SW 10:59:29 10° SE
STARLINK 1036 3.1 10:55:53 31° W 10:56:53 47° SW 10:59:42 10° SE
STARLINK 1047 3.1 10:56:20 31° W 10:57:21 47° SW 11:00:10 10° SE
PAYLOAD B 4.3 10:52:34 10° N 10:57:57 56° WNW 11:03:21 10° SSW
Cosmos 1733 Rocket 3.5 10:54:24 10° S 10:58:39 64° E 11:02:57 10° NNE
Meteor 1-14 Rocket 4.4 10:53:44 10° SSW 10:59:31 55° WNW 11:05:25 10° N
Cosmos 1340 3.0 11:02:24 10° SSW 11:05:57 40° WNW 11:09:32 10° N
Meteor 2-13 Rocket 4.4 11:01:09 10° N 11:07:20 85° W 11:13:29 10° S
Cosmos 1869 Rocket 4.3 11:04:38 10° SW 11:08:26 29° WNW 11:12:16 10° NNW
Cosmos 371 Rocket 3.4 11:03:53 10° SSW 11:08:43 84° ESE 11:13:36 10° NNE
SMAP 3.6 11:04:57 10° NNE 11:09:34 63° E 11:14:11 10° S
Cosmos 2180 Rocket 4.4 11:03:33 10° SSW 11:09:39 77° W 11:15:51 10° N
Cosmos 1500 3.4 11:05:51 10° S 11:09:41 75° E 11:13:31 10° NNE
CZ-4 R/B 4.4 11:08:39 10° NE 11:11:04 16° E 11:13:30 10° SE
Cosmos 1515 3.6 11:07:56 10° NNW 11:11:45 65° W 11:15:31 10° S
Cosmos 2266 Rocket 4.3 11:07:23 10° N 11:13:38 71° E 11:19:43 10° SSE
Cosmos 44 3.1 11:09:54 10° SW 11:14:40 71° NW 11:19:13 10° NNE
Okean 1 4.4 11:12:30 12° NW 11:15:27 25° W 11:18:43 10° SW
SL-23 DEB 3.7 11:15:12 13° W 11:17:52 45° NNW 11:21:12 10° NE
Meteor 1-19 Rocket 4.5 11:13:09 10° NNW 11:18:23 45° W 11:23:41 10° SSW
ALOS 3.1 11:14:47 10° N 11:18:46 28° WNW 11:22:45 10° SW
STARLINK 1044 4.1 11:17:17 15° W 11:18:56 25° SW 11:21:22 10° SSE
Meteor 1-5 Rocket 4.4 11:13:06 10° S 11:19:04 90° WSW 11:24:58 10° N
Cosmos 1741 Rocket 4.4 11:15:57 10° NNW 11:20:53 44° WSW 11:25:48 10° S
STARLINK 1050 4.1 11:20:14 14° WNW 11:22:51 35° SW 11:26:04 10° SSE
Meteor 2-4 Rocket 3.6 11:18:22 10° NNW 11:23:49 64° W 11:29:07 10° S
STARLINK 1055 4.2 11:23:09 13° WNW 11:25:52 33° SW 11:29:02 10° SSE
Envisat 4.1 11:22:43 10° NNE 11:27:40 50° E 11:32:34 10° S
STARLINK 1022 4.3 11:25:36 12° WNW 11:28:25 31° SW 11:31:33 10° SSE
Cosmos 1674 Rocket 3.5 11:24:38 10° N 11:29:00 89° WSW 11:33:18 10° S
AQUARIUS 4.2 11:25:06 10° NNE 11:29:37 87° WNW 11:34:06 10° SSW
STARLINK 1042 4.4 11:28:52 11° WNW 11:31:47 29° SW 11:34:52 10° SSE
IRS-1C Rocket 4.1 11:27:54 10° NNE 11:33:11 81° WNW 11:38:25 10° SSW
STARLINK 1056 4.5 11:31:50 10° WNW 11:34:52 27° SW 11:37:53 10° SSE
Helios 1A Rocket 4.0 11:36:20 10° NNW 11:39:27 22° WNW 11:42:34 10° WSW
Cosmos 405 3.0 11:36:43 10° NNW 11:40:13 58° W 11:43:41 10° S
Cosmos 1536 2.8 11:36:50 10° SSW 11:40:53 75° W 11:44:58 10° N
